Location: Newark
(48.0000°N, 67.0000°E)
Time: 04:21:53
(UTC+00:00)

DUCHIFAT 1 - Pass Details

Date: 03 April 2020
Orbit: 586 x 604 km, 97.9° (Epoch: 27 May)

Event Time Altitude Azimuth Distance (km) Brightness Sun altitude
Rises 20:50:37 0° 14° (NNE) 2,843 ? -33.7°
Reaches altitude 10° 20:52:48 10° 15° (NNE) 1,933 ? -33.6°
Enters shadow 20:54:20 22° 16° (NNE) 1,317 ? -33.5°
